This is the latest recevied weather packets stored in our database for station/object JE7UPL-13. If no packets are shown the sender has not sent any weather packets the latest 10 day(s).
| Time | Temp. | Humidity | Pressure | Rain* | Wind** | Luminosity | Snow |
|---|---|---|---|---|---|---|---|
| 1787999407 | 20.56° C | 71% | 1007.6 hPa | 0 mm | - | - | - |
| 1787998507 | 20.56° C | 70% | 1007.8 hPa | 0 mm | - | - | - |
| 1787997607 | 20.56° C | 70% | 1007.3 hPa | 0 mm | - | - | - |
| 1787996706 | 20.56° C | 70% | 1007.1 hPa | 0 mm | - | - | - |
| 1787995807 | 20.56° C | 71% | 1006.6 hPa | 0 mm | - | - | - |
| 1787994906 | 21.11° C | 70% | 1006.7 hPa | 0 mm | - | - | - |
| 1787994007 | 21.11° C | 70% | 1006.4 hPa | 0 mm | - | - | - |
| 1787993107 | 21.67° C | 70% | 1006.7 hPa | 0 mm | - | - | - |
| 1787992206 | 21.67° C | 70% | 1006.3 hPa | 0 mm | - | - | - |
| 1787991307 | 21.67° C | 71% | 1006.3 hPa | 0 mm | - | - | - |
| 1787990407 | 22.22° C | 69% | 1006.2 hPa | 0 mm | - | - | - |
| 1787989506 | 22.22° C | 69% | 1006.3 hPa | 0 mm | - | - | - |
| 1787988607 | 22.22° C | 68% | 1006.5 hPa | 0 mm | - | - | - |
| 1787987706 | 23.33° C | 67% | 1006.1 hPa | 0 mm | - | - | - |
| 1787986807 | 23.33° C | 67% | 1006.1 hPa | 0 mm | - | - | - |
| 1787985906 | 23.33° C | 66% | 1006.1 hPa | 0 mm | - | - | - |
| 1787985007 | 23.33° C | 65% | 1006.1 hPa | 0 mm | - | - | - |
| 1787984106 | 23.33° C | 65% | 1006.1 hPa | 0 mm | - | - | - |
| 1787983207 | 23.33° C | 64% | 1006.1 hPa | 0 mm | - | - | - |
| 1787982306 | 24.44° C | 63% | 1006.3 hPa | 0 mm | - | - | - |
| 1787981407 | 23.33° C | 65% | 1006.4 hPa | 0 mm | - | - | - |
| 1787980506 | 23.33° C | 64% | 1006.1 hPa | 0 mm | - | - | - |
| 1787979607 | 23.89° C | 64% | 1006.4 hPa | 0 mm | - | - | - |
| 1787978707 | 24.44° C | 62% | 1006.2 hPa | 0 mm | - | - | - |
| 1787977806 | 24.44° C | 61% | 1006.7 hPa | 0 mm | - | - | - |
* Rain latest hour (hover to see other rain measurements)
** Current wind speed in m/s (hover to see current wind gust speed)